BREEZE-M DEB (TANK), 37871

Orbit data source: Space-Track

BREEZE-M DEB (TANK), 37871 is space debris in HEO originally from a launch on Fri, 04 Nov 2011 UTC launched from the Tyuratam Missile And Space Complex (TTMTR). Debris objects in space refer to the collection of defunct objects orbiting the Earth. Examples of debris include non-operational satellites, rocket bodies, and fragments generated from explosions, collisions, or faulty payload assembly.

Loading next visibility...
Identifier
37871, 2011-064E
Orbit
HEO
Country
Flag of CISCIS
Related business
Manufacturer
Khrunichev
Mission
Spacecraft
Bus & Motor
BRIZ TANK, Unknown motor
Mass
~1,000 kg wet, 1,000 kg dry
Launch date (UTC)
2011-11-04 (14 years ago)
Launch vehicle
Unknown
Launch site
Tyuratam Missile And Space Complex (TTMTR)
Object type
Payload
Rocket body
Debris
Shape & HBR
Torus, 2.0 m
Radar Cross Section
8.218 m², Large (>1 m²)

Expand to show TLE details & history
Last TLE update: 20 hours ago

TLE from 20 hours ago
0 BREEZE-M DEB (TANK)
1 37871U 11064E   25350.07460761  .00006705  00000-0  12070-2 0  9994
2 37871  52.4701 252.1073 5756108  54.9807 346.3894  4.41363433222927
Epoch: 2025-12-16T01:47Z
TLE epoch observation values (Epoch: 2025-12-16T01:47:26.097Z)
Latitude
0.00009°
Longitude
140.29412°
Altitude
1,507.915 km
Speed
8.701 km/s
True Right ascension
16h 48m 28s
True Declination
0° 00' 00"
Sunlit
Object was in daylight at epoch
Visualization orbit readout
Latitude
Unknown
Longitude
Unknown
Altitude
Unknown
Speed
Unknown
Apparent Right ascension
Unknown
Apparent Declination
Unknown
Sunlit
N/A
Visualization observer readout
Local Sidereal Time
20:19:04
Azimuth
Unknown
Elevation
Unknown
Doppler factor
Unknown
Orbital elements
Apogee altitude
18,357.79 km
Perigee altitude
284.46 km
Semi-major axis
15,699.262 km
Eccentricity
0.57561
Inclination
52.4701°
RAAN
252.1073°
Arg. of periapsis
54.9807°
True anomaly
305.05964°
Mean anomaly
346.3894°
Eccentric anomaly
329.79954°
Mean motion
1.10338 °/min
Orbital period
326.27 mins
BSTAR
0.001207
Loading maneuver chart data...
Computing Atmospheric mass density...
Loading historical data...
Loading historical data...
Loading historical data...
Loading historical data...
Loading historical data...
Loading historical data...
Loading historical data...

Documentation

Showing up to 5 results
|